Other Public Products
Issued by NWS Grand Forks, ND

Home | Current Version | Previous Version | Graphics & Text | Print | Product List | Glossary On
Versions: 1 2 3 4 5 6 7 8 9 10 11 12 13 14 15 16 17 18 19 20 21 22 23 24 25 26 27 28 29 30 31 32 33 34 35 36 37 38 39 40 41 42 43 44 45 46 47 48 49 50
000
FPUS83 KFGF 230610
OPUFGF
PRAIRIE TO PINES WEATHER ROUNDUP
NATIONAL WEATHER SERVICE EASTERN NORTH DAKOTA/GRAND FORKS ND
100 AM CDT SAT MAY 23 2015

 **SATELLITE DATA USED TO AUGMENT SKY COVER AT AUTOMATED STATIONS**
 *****  WEATHER ACROSS EASTERN NORTH DAKOTA  *****

CITY           SKY/WX    TMP DP  RH WIND       PRES   REMARKS
GRAND FORKS    CLEAR     56  42  59 S6        30.12R
6HR MIN TEMP:  53; 6HR MAX TEMP:  76;

GRAND FORKS AF CLEAR     52  43  69 SW3       30.12S
GRAND CITY NWS   N/A     55 N/A N/A S2          N/A
BUXTON         NOT AVBL
DEVILS LAKE    CLEAR     54  43  66 SE5       30.12R
6HR MIN TEMP:  54; 6HR MAX TEMP:  73;

FARGO          CLEAR     60  39  45 SE8       30.13S
6HR MIN TEMP:  60; 6HR MAX TEMP:  74;

WAHPETON ARPT  PTCLDY    54  36  50 S9        30.16R
$$

 *****  WEATHER ACROSS CENTRAL AND WESTERN NORTH DAKOTA  *****

CITY           SKY/WX    TMP DP  RH WIND       PRES   REMARKS
JAMESTOWN      CLEAR     56  38  50 SE5       30.12S
6HR MIN TEMP:  54; 6HR MAX TEMP:  71;

BISMARCK       PTCLDY    53  41  63 CALM      30.12S
6HR MIN TEMP:  52; 6HR MAX TEMP:  73;

MINOT          MOCLDY    58  41  53 SE3       30.09R
6HR MIN TEMP:  54; 6HR MAX TEMP:  75;

MINOT AFB      PTCLDY    55  44  66 S6        30.08R
6HR MIN TEMP:  55; 6HR MAX TEMP:  78;

GARRISON         N/A     55  42  61 S3        30.11R
6HR MIN TEMP:  54; 6HR MAX TEMP:  72;

WILLISTON      PTCLDY    59  37  44 SE7       30.08R
6HR MIN TEMP:  58; 6HR MAX TEMP:  75;

DICKINSON      PTCLDY    46  35  65 S10       30.08S
6HR MIN TEMP:  46; 6HR MAX TEMP:  69;

HETTINGER      PTCLDY    46  38  73 SE5       30.10F
6HR MIN TEMP:  46; 6HR MAX TEMP:  66;

$$

 *****  OTHER OBSERVATIONS NORTHEAST NORTH DAKOTA  *****

CITY           SKY/WX    TMP DP  RH WIND       PRES   REMARKS
WALHALLA       FAIR      57  36  44 SW3       30.11R
LANGDON        FAIR      50  37  62 S12       30.13S
CAVALIER       FAIR      55  43  62 SW6       30.11R
GRAFTON        FAIR      54  48  82 SW5       30.12S
CANDO          FAIR      48  39  71 S6        30.12S
FORT TOTTEN      N/A     57  31  37 SE6       29.95
ROLLA          FAIR      52  32  46 SW6       30.13S
RUGBY          NOT AVBL
 ***** THE ABOVE OBSERVATIONS ARE NON NWS ARE NOT QUALITY
        CONTROLLED AND MAY MIS-REPORT RAIN FOR SNOW...
$$

 *****  OTHER OBSERVATIONS SOUTHEAST NORTH DAKOTA *****

CITY           SKY/WX    TMP DP  RH WIND       PRES   REMARKS
COOPERSTOWN    NOT AVBL
VALLEY CITY    FAIR      54  36  50 S5        30.14S
OAKES            N/A     55  48  76 S15       30.16R
GWINNER        NOT AVBL
SHEYENNE NWR     N/A     52  39  62 S7        29.95S
BUFFALO        NOT AVBL
WYNDMERE         N/A     55  43  62 SW9         N/A
 ***** THE ABOVE OBSERVATIONS ARE NON NWS ARE NOT QUALITY
       CONTROLLED AND MAY MIS-REPORT RAIN FOR SNOW...
$$

  *****  WEATHER ACROSS NORTHERN MINNESOTA  *****

CITY           SKY/WX    TMP DP  RH WIND       PRES   REMARKS
FLAG ISLAND    NOT AVBL
WARROAD        PTCLDY    61  43  51 SW7       30.11S
ROSEAU         PTCLDY    61  45  55 SW8       30.11S
HALLOCK        CLEAR     55  43  62 S9        30.11R
THF RVR FALLS  CLEAR     55  37  50 S7        30.15R
6HR MIN TEMP:  55; 6HR MAX TEMP:  75;

HALSTAD        NOT AVBL
FOSSTON        CLEAR     46  39  76 CALM      30.17R
BAUDETTE       CLEAR     54  40  59 W3        30.11R
6HR MIN TEMP:  53; 6HR MAX TEMP:  74;

WASKISH        CLEAR     57  43  58 CALM      30.14R
CROOKSTON      CLEAR     55  41  58 SE7       30.14S
$$
  *****  WEATHER ACROSS CENTRAL AND WEST MINNESOTA  *****

CITY           SKY/WX    TMP DP  RH WIND       PRES   REMARKS
BEMIDJI        CLEAR     49  40  70 CALM      30.17R
PARK RAPIDS    CLEAR     54  40  59 CALM      30.17S
6HR MIN TEMP:  54; 6HR MAX TEMP:  73;

WADENA         PTCLDY    54  39  58 CALM      30.17S
DETROIT LAKES  CLEAR     54  41  62 CALM      30.18S
MOORHEAD       CLEAR     59  39  47 SE5       30.15S
FERGUS FALLS   PTCLDY    59  37  44 SE8       30.16S
ELBOW LAKE     FAIR      56  39  53 S10       30.17R
6HR MIN TEMP:  56; 6HR MAX TEMP:  71;

MORRIS MN      PTCLDY    57  45  62 SW8       30.18R
STAPLES        PTCLDY    48  41  76 CALM      30.18S
WHEATON        PTCLDY    57  45  62 SW10      30.19R
$$
  *****  WEATHER ELSEWHERE ACROSS MINNESOTA  *****

CITY           SKY/WX    TMP DP  RH WIND       PRES   REMARKS
DULUTH         CLEAR     53  36  52 SW10      30.18S
6HR MIN TEMP:  52; 6HR MAX TEMP:  73;

INTRNTL FALLS  MOCLDY    53  42  66 SW5       30.11S
6HR MIN TEMP:  51; 6HR MAX TEMP:  73; 6HR PCP: TRACE;

ELY            CLEAR     52  36  54 SW3       30.14S
CLOQUET        CLEAR     55  34  44 SW6       30.18S
BRAINERD       CLEAR     46  41  82 CALM      30.19S
6HR MIN TEMP:  46; 6HR MAX TEMP:  72;

HIBBING        CLEAR     42  36  79 SW3       30.16S
6HR MIN TEMP:  41; 6HR MAX TEMP:  72;

ALEXANDRIA     PTCLDY    57  38  48 SE7       30.19S
6HR MIN TEMP:  57; 6HR MAX TEMP:  71;

SAINT CLOUD    PTCLDY    47  44  90 CALM      30.19S
6HR MIN TEMP:  47; 6HR MAX TEMP:  72;

MINNEAPOLIS    PTCLDY    59  39  47 SE5       30.20S
6HR MIN TEMP:  59; 6HR MAX TEMP:  73;

$$

  *****  WEATHER ACROSS SOUTH DAKOTA  *****

CITY           SKY/WX    TMP DP  RH WIND       PRES   REMARKS
SIOUX FALLS    CLOUDY    55  45  68 CALM      30.20R
6HR MIN TEMP:  54; 6HR MAX TEMP:  66;

BROOKINGS      PTCLDY    54  43  66 CALM      30.21S
WATERTOWN      CLOUDY    53  44  71 SW3       30.20S
6HR MIN TEMP:  51; 6HR MAX TEMP:  71;

HURON          PTCLDY    49  43  80 SE3       30.19R
6HR MIN TEMP:  49; 6HR MAX TEMP:  70;

SISSETON         N/A     57  44  62 W14G22    30.15S
ABERDEEN       MOCLDY    50  43  77 S7        30.18S
6HR MIN TEMP:  50; 6HR MAX TEMP:  74;

MITCHELL       CLOUDY    55  46  71 CALM      30.20S
PIERRE         PTCLDY    46  41  82 SE10      30.13F
6HR MIN TEMP:  46; 6HR MAX TEMP:  64;

MOBRIDGE       CLEAR     51  46  83 S8        30.12S
RAPID CITY     CLOUDY    48  43  82 SE9       30.08S
6HR MIN TEMP:  48; 6HR MAX TEMP:  57;

$$

  *****  SOME WEATHER IN NEARBY STATES *****

CITY           SKY/WX    TMP DP  RH WIND       PRES   REMARKS
GLASGOW MT     MOCLDY    59  41  51 E10       30.00R
6HR MIN TEMP:  59; 6HR MAX TEMP:  72;

GREAT FALLS MT MOCLDY    55  41  59 NE18G24   29.98R
6HR MIN TEMP:  52; 6HR MAX TEMP:  69; 6HR PCP: TRACE;

CHEYENNE WY    CLOUDY    43  42  97 S10       30.05S
6HR MIN TEMP:  43; 6HR MAX TEMP:  47; 6HR PCP: TRACE;

SCOTTSBLUFF NE CLOUDY    45  45 100 E12       30.05F FOG
6HR MIN TEMP:  45; 6HR MAX TEMP:  49;

OMAHA NE       CLOUDY    59  49  69 S7        30.19F
6HR MIN TEMP:  58; 6HR MAX TEMP:  67; 6HR PCP: TRACE;

DES MOINES IA  MOCLDY    59  49  69 S5        30.22R
6HR MIN TEMP:  59; 6HR MAX TEMP:  71; 6HR PCP: TRACE;

DAVENPORT IA   CLOUDY    60  44  55 SE7       30.24R
6HR MIN TEMP:  59; 6HR MAX TEMP:  73;

CHICAGO IL     PTCLDY    50  33  52 SE3       30.29S
6HR MIN TEMP:  50; 6HR MAX TEMP:  57;

EAU CLAIRE WI  PTCLDY    47  40  76 CALM      30.22R
6HR MIN TEMP:  45; 6HR MAX TEMP:  71;

LA CROSSE WI   MOCLDY    54  44  69 SE5       30.22S
6HR MIN TEMP:  54; 6HR MAX TEMP:  75;

$$

  *****  SOME NATIONAL WEATHER *****

CITY           SKY/WX    TMP DP  RH WIND       PRES   REMARKS



USA.gov is the U.S. government's official web portal to all federal, state and local government web resources and services.